Content
SEND FEEDBACK

Daily
Averages
Monthly
Summary
United States of America

ORANGE LAKE, NEW YORK


Home > North America > United States > New York
Elevation: 581 feet     Latitude: 41 47N     Longitude: 074 58W

WEATHER
 
SELECT A DAY
Number of Records: 151,258;   Date Range: 11/1/95 - 10/22/14
 
SHARE

PRINT THIS DATA

[ ← Previous Day ]
WEATHER ALMANAC - JUNE 18, 2014
[ Next Day → ]
[ °C ]   °F
Weather ElementAverageHighLow
Temperature83.3 °F87.1 °F (12:51 pm)80.1 °F (2:51 am)
Dewpoint61.7 °F68 °F (2:51 am)55 °F (7:51 pm)
Humidity48.9 %67 % (2:51 am)35 % (7:51 pm)
Barometer29.89 in29.97 in (10:51 pm)29.81 in (4:51 am)
Wind Speed6.2 mph12.7 mph (7:51 am)
Wind Gust21.9 mph (9:51 am)
Weather ElementAverage
Visibility9.7 mi
Wind DirectionE (91.7 °)

Weather ElementTotal
Precipitation---
Cooling Degree Days18.6 (Base 65)
Growing Degree Days33.6 (Base 50)
Averaged from 23 records on June 18, 2014
WEATHER CONDITIONS BREAKOUT
WIND DIRECTION BREAKOUT
WEATHER BY HOUR - JUNE 18, 2014
[ °C ]   °F
Local TimeTemperatureDewpointHumidityBarometerVisibilityWind DirectionWind SpeedGust SpeedPrecipitationEventsConditions
1:51 AM81.0 °F66.9 °F62 %29.86 in9.0 miVariable5.8 mphClear
2:51 AM80.1 °F68.0 °F67 %29.84 in9.0 miVariable5.8 mphClear
3:51 AM80.1 °F68.0 °F67 %29.82 in8.0 miWSW (250°)9.2 mphClear
4:51 AM80.1 °F68.0 °F67 %29.81 in8.0 miNorthClear
5:51 AM80.1 °F64.0 °F58 %29.81 in9.0 miWest (270°)8.1 mphClear
6:51 AM81.0 °F62.1 °F52 %29.83 in10.0 miWNW (290°)8.1 mphClear
7:51 AM80.1 °F62.1 °F54 %29.85 in10.0 miWNW (290°)12.7 mph20.7 mphClear
8:51 AM81.0 °F62.1 °F52 %29.85 in10.0 miVariable4.6 mphClear
9:51 AM82.0 °F63.0 °F52 %29.87 in10.0 miNW (310°)11.5 mph21.9 mphClear
10:51 AM84.0 °F62.1 °F47 %29.88 in10.0 miNorthClear
11:51 AM84.9 °F62.1 °F46 %29.88 in10.0 miVariable6.9 mph18.4 mphClear
12:51 PM87.1 °F62.1 °F43 %29.91 in10.0 miVariable5.8 mph21.9 mphClear
1:51 PM86.0 °F60.1 °F41 %29.93 in10.0 miNW (310°)8.1 mphClear
2:51 PM87.1 °F59.0 °F39 %29.92 in10.0 miVariable6.9 mphClear
3:51 PM87.1 °F61.0 °F41 %29.90 in10.0 miNorthClear
4:51 PM86.0 °F59.0 °F40 %29.91 in10.0 miVariable3.5 mphClear
5:51 PM87.1 °F57.9 °F37 %29.91 in10.0 miVariable4.6 mphClear
6:51 PM87.1 °F59.0 °F39 %29.91 in10.0 miVariable3.5 mphClear
7:51 PM86.0 °F55.0 °F35 %29.94 in10.0 miVariable4.6 mphClear
8:51 PM84.0 °F57.9 °F41 %29.94 in10.0 miVariable4.6 mphClear
9:51 PM82.0 °F60.1 °F47 %29.96 in10.0 miNNE (20°)3.5 mphClear
10:51 PM81.0 °F59.0 °F47 %29.97 in10.0 miNNW (340°)3.5 mphClear
11:51 PM80.1 °F60.1 °F50 %29.96 in10.0 miNNE (30°)3.5 mphClear
Hourly data recorded from KNYC, located miles away from Orange Lake, New York







STORIES FROM OUR PARTNERS